Retour au catalogue

FENGYUN 1C DEB

ActifSSO
NORAD 36230·DEBRIS·🇨🇳 China

Lancé May 10, 1999 depuis Taiyuan Satellite Launch Center

Loading…

Prochains Passages (prochaines 24 heures)

TLE

VieillissantSource: Space-Track

Époque: Sep 10, 2026, 01:33 UTC

1 36230U 99025DVF 26253.06483261  .00001156  00000-0  10405-2 0  9992
2 36230  99.5153 332.9970 0214630 152.5910 208.6756 13.76194439656176

Suivez FENGYUN 1C DEB en temps réel avec AllMySat

Download on the App Store